This is the latest recevied weather packets stored in our database for station/object KQ7A. If no packets are shown the sender has not sent any weather packets the latest 10 day(s).
| Time | Temp. | Humidity | Pressure | Rain* | Wind** | Luminosity | Snow |
|---|---|---|---|---|---|---|---|
| 1778109584 | 24.44° C | 21% | 1020.7 hPa | 0 mm | - | 553 W/m² | - |
| 1778109282 | 25° C | 22% | 1020.7 hPa | 0 mm | - | 561 W/m² | - |
| 1778108979 | 25° C | 23% | 1021.1 hPa | 0 mm | - | 571 W/m² | - |
| 1778108675 | 25° C | 19% | 1020.8 hPa | 0 mm | - | 576 W/m² | - |
| 1778108372 | 24.44° C | 21% | 1020.9 hPa | 0 mm | - | 594 W/m² | - |
| 1778108069 | 24.44° C | 23% | 1020.7 hPa | 0 mm | - | 606 W/m² | - |
| 1778107766 | 23.89° C | 22% | 1020.8 hPa | 0 mm | - | 613 W/m² | - |
| 1778107463 | 24.44° C | 27% | 1020.9 hPa | 0 mm | - | 626 W/m² | - |
| 1778107160 | 24.44° C | 27% | 1020.9 hPa | 0 mm | - | 637 W/m² | - |
| 1778106855 | 24.44° C | 24% | 1020.9 hPa | 0 mm | - | 649 W/m² | - |
| 1778106552 | 23.89° C | 24% | 1020.9 hPa | 0 mm | - | 659 W/m² | - |
| 1778106249 | 23.89° C | 24% | 1021.1 hPa | 0 mm | - | 662 W/m² | - |
| 1778105946 | 23.89° C | 26% | 1021.1 hPa | 0 mm | - | 658 W/m² | - |
| 1778105643 | 23.33° C | 25% | 1021.3 hPa | 0 mm | - | 654 W/m² | - |
| 1778105341 | 23.89° C | 27% | 1021.2 hPa | 0 mm | - | 640 W/m² | - |
| 1778105036 | 23.89° C | 27% | 1021.3 hPa | 0 mm | - | 639 W/m² | - |
| 1778104733 | 23.33° C | 25% | 1021.3 hPa | 0 mm | - | 665 W/m² | - |
| 1778104429 | 23.33° C | 23% | 1021.3 hPa | 0 mm | - | 677 W/m² | - |
| 1778104125 | 23.33° C | 27% | 1021.4 hPa | 0 mm | - | 693 W/m² | - |
| 1778103822 | 23.89° C | 25% | 1021.3 hPa | 0 mm | - | 706 W/m² | - |
| 1778103520 | 22.78° C | 23% | 1021.5 hPa | 0 mm | - | 704 W/m² | - |
| 1778103217 | 23.33° C | 20% | 1021.8 hPa | 0 mm | - | 710 W/m² | - |
| 1778102914 | 23.33° C | 28% | 1021.5 hPa | 0 mm | - | 715 W/m² | - |
| 1778102609 | 23.33° C | 25% | 1021.9 hPa | 0 mm | - | 718 W/m² | - |
| 1778102299 | 23.89° C | 25% | 1021.8 hPa | 0 mm | - | 718 W/m² | - |
* Rain latest hour (hover to see other rain measurements)
** Current wind speed in m/s (hover to see current wind gust speed)